Location: ????????
(38.4362°N, 22.8767°E)
Time: 04:12:32
(UTC+00:00)

FENGYUN 1C DEB - Pass Details

Date: 21 October 2025
Orbit: 841 x 1273 km, 99.2° (Epoch: 16 November)

Event Time Altitude Azimuth Distance (km) Brightness Sun altitude
Rises 03:01:48 0° 15° (NNE) 3,412 ? -20.6°
Reaches altitude 10° 03:04:07 10° 17° (NNE) 2,488 ? -20.1°
Maximum altitude 03:09:36 78° 104° (ESE) 909 ? -19.1°
Drops below altitude 10° 03:15:27 10° 191° (S) 2,651 ? -17.9°
Sets 03:17:58 0° 192° (SSW) 3,650 ? -17.4°
